• In United Kingdom
  • List of Countries
  • For 7 days
  • Water Temperature
  • Satellite Maps
  • Weather Map
  • Weather Widgets
  • user-avatar
    Login

    Hourly Weather Wiktoria

    Today, 18 August, Friday

    Time Temperature Precipitation Wind Pressure Humidity
    00:00 +4°C° 0.1 mm 6 mps 743 mmHg 90%
    01:00 +5°C° 0.1 mm 5 mps 743 mmHg 91%
    02:00 +3°C° 0 mm 5 mps 743 mmHg 91%
    03:00 +3°C° 0 mm 5 mps 744 mmHg 91%
    04:00 +3°C° 0 mm 3 mps 744 mmHg 93%
    05:00 +3°C° 0 mm 4 mps 744 mmHg 93%
    06:00 +3°C° 0 mm 4 mps 745 mmHg 92%
    07:00 +2°C° 0 mm 5 mps 745 mmHg 91%
    08:00 +4°C° 0 mm 6 mps 745 mmHg 85%
    09:00 +6°C° 0 mm 7 mps 746 mmHg 79%
    10:00 +7°C° 0 mm 9 mps 747 mmHg 72%
    11:00 +7°C° 0.3 mm 8 mps 747 mmHg 72%
    12:00 +9°C° 0.3 mm 8 mps 747 mmHg 73%
    13:00 +9°C° 0.3 mm 8 mps 747 mmHg 74%
    14:00 +9°C° 0.5 mm 7 mps 747 mmHg 76%
    15:00 +8°C° 0.5 mm 7 mps 748 mmHg 79%
    16:00 +8°C° 0 mm 6 mps 749 mmHg 82%
    17:00 +7°C° 0.1 mm 5 mps 749 mmHg 83%
    18:00 +6°C° 0.1 mm 4 mps 750 mmHg 85%
    19:00 +5°C° 0.1 mm 4 mps 751 mmHg 86%
    20:00 +4°C° 0 mm 4 mps 751 mmHg 87%
    21:00 +4°C° 0 mm 4 mps 752 mmHg 89%
    22:00 +3°C° 0 mm 3 mps 753 mmHg 92%
    23:00 +2°C° 0 mm 3 mps 753 mmHg 93%

    Tomorrow, 19 August, Saturday

    Time Temperature Precipitation Wind Pressure Humidity
    00:00 +2°C° 0 mm 3 mps 753 mmHg 93%
    01:00 +2°C° 0 mm 3 mps 753 mmHg 94%
    02:00 +2°C° 0 mm 3 mps 753 mmHg 94%
    03:00 +1°C° 0 mm 3 mps 754 mmHg 94%
    04:00 +1°C° 0 mm 3 mps 754 mmHg 94%
    05:00 +1°C° 0 mm 3 mps 754 mmHg 95%
    06:00 +1°C° 0 mm 3 mps 755 mmHg 95%
    07:00 +2°C° 0 mm 2 mps 755 mmHg 95%
    08:00 +3°C° 0 mm 3 mps 756 mmHg 89%
    09:00 +5°C° 0 mm 4 mps 756 mmHg 82%
    10:00 +7°C° 0 mm 4 mps 757 mmHg 76%
    11:00 +8°C° 0 mm 4 mps 756 mmHg 71%
    12:00 +9°C° 0 mm 5 mps 756 mmHg 66%
    13:00 +10°C° 0 mm 5 mps 756 mmHg 61%
    14:00 +11°C° 0 mm 4 mps 756 mmHg 62%
    15:00 +11°C° 0 mm 4 mps 756 mmHg 64%
    16:00 +11°C° 0 mm 4 mps 756 mmHg 66%
    17:00 +8°C° 0 mm 4 mps 757 mmHg 71%
    18:00 +7°C° 0 mm 3 mps 757 mmHg 77%
    19:00 +4°C° 0 mm 3 mps 758 mmHg 82%
    20:00 +4°C° 0 mm 3 mps 758 mmHg 85%
    21:00 +3°C° 0 mm 3 mps 758 mmHg 87%
    22:00 +3°C° 0 mm 2 mps 758 mmHg 90%
    23:00 +3°C° 0 mm 2 mps 758 mmHg 90%

    Day after tomorrow, 20 August, Sunday

    Time Temperature Precipitation Wind Pressure Humidity
    00:00 +2°C° 0 mm 2 mps 759 mmHg 91%
    01:00 +2°C° 0 mm 2 mps 759 mmHg 92%
    02:00 +2°C° 0 mm 2 mps 758 mmHg 92%
    03:00 +1°C° 0 mm 2 mps 758 mmHg 92%
    04:00 +1°C° 0 mm 2 mps 758 mmHg 92%
    05:00 +2°C° 0 mm 1 mps 758 mmHg 92%
    06:00 +1°C° 0 mm 1 mps 758 mmHg 92%
    07:00 +1°C° 0 mm 1 mps 758 mmHg 93%
    08:00 +4°C° 0 mm 1 mps 758 mmHg 85%
    09:00 +6°C° 0 mm 1 mps 758 mmHg 78%
    10:00 +9°C° 0 mm 1 mps 758 mmHg 71%
    11:00 +10°C° 0 mm 1 mps 757 mmHg 67%
    12:00 +11°C° 0 mm 1 mps 756 mmHg 62%
    13:00 +12°C° 0 mm 2 mps 756 mmHg 58%
    14:00 +12°C° 0 mm 1 mps 755 mmHg 58%
    15:00 +12°C° 0 mm 1 mps 754 mmHg 59%
    16:00 +12°C° 0 mm 1 mps 754 mmHg 59%
    17:00 +10°C° 0 mm 1 mps 754 mmHg 65%
    18:00 +9°C° 0 mm 1 mps 754 mmHg 71%
    19:00 +7°C° 0 mm 1 mps 754 mmHg 77%
    20:00 +6°C° 0 mm 1 mps 754 mmHg 78%
    21:00 +5°C° 0 mm 2 mps 754 mmHg 79%
    22:00 +5°C° 0 mm 2 mps 753 mmHg 80%
    23:00 +5°C° 0 mm 2 mps 753 mmHg 80%

    21 August, Monday

    Time Temperature Precipitation Wind Pressure Humidity
    00:00 +5°C° 0 mm 2 mps 753 mmHg 80%
    01:00 +4°C° 0 mm 3 mps 752 mmHg 79%
    02:00 +4°C° 0.1 mm 3 mps 752 mmHg 82%
    03:00 +4°C° 0.1 mm 3 mps 751 mmHg 84%
    04:00 +3°C° 0.1 mm 3 mps 751 mmHg 86%
    05:00 +3°C° 0.6 mm 3 mps 751 mmHg 89%
    06:00 +3°C° 0.6 mm 3 mps 751 mmHg 91%
    07:00 +3°C° 0.6 mm 4 mps 751 mmHg 94%
    08:00 +3°C° 0.6 mm 4 mps 750 mmHg 94%
    09:00 +3°C° 0.6 mm 5 mps 750 mmHg 94%
    10:00 +3°C° 0.6 mm 5 mps 750 mmHg 94%
    11:00 +5°C° 0.1 mm 5 mps 749 mmHg 91%
    12:00 +6°C° 0.1 mm 5 mps 749 mmHg 89%
    13:00 +7°C° 0.1 mm 5 mps 748 mmHg 86%
    14:00 +7°C° 0.1 mm 5 mps 748 mmHg 86%
    15:00 +7°C° 0.1 mm 4 mps 747 mmHg 86%
    16:00 +8°C° 0.1 mm 4 mps 747 mmHg 86%
    17:00 +7°C° 0.3 mm 4 mps 747 mmHg 88%
    18:00 +7°C° 0.3 mm 4 mps 747 mmHg 90%
    19:00 +6°C° 0.3 mm 5 mps 748 mmHg 92%
    20:00 +5°C° 0.1 mm 4 mps 748 mmHg 93%
    21:00 +5°C° 0.1 mm 4 mps 748 mmHg 93%
    22:00 +5°C° 0.1 mm 3 mps 748 mmHg 94%
    23:00 +4°C° 0 mm 3 mps 748 mmHg 94%

    22 August, Tuesday

    Time Temperature Precipitation Wind Pressure Humidity
    00:00 +4°C° 0 mm 3 mps 748 mmHg 94%
    01:00 +4°C° 0 mm 2 mps 748 mmHg 94%
    02:00 +4°C° 0 mm 2 mps 748 mmHg 94%
    03:00 +4°C° 0 mm 2 mps 748 mmHg 94%
    04:00 +3°C° 0 mm 2 mps 748 mmHg 93%
    05:00 +4°C° 0 mm 1 mps 749 mmHg 93%
    06:00 +4°C° 0 mm 1 mps 749 mmHg 93%
    07:00 +3°C° 0 mm 1 mps 750 mmHg 92%
    08:00 +6°C° 0 mm 1 mps 750 mmHg 88%
    09:00 +8°C° 0 mm 1 mps 750 mmHg 83%
    10:00 +9°C° 0 mm 0 mps 751 mmHg 79%
    11:00 +12°C° 0 mm 1 mps 751 mmHg 76%
    12:00 +13°C° 0 mm 2 mps 750 mmHg 73%
    13:00 +14°C° 0 mm 2 mps 750 mmHg 70%
    14:00 +14°C° 0 mm 2 mps 750 mmHg 72%
    15:00 +13°C° 0 mm 3 mps 750 mmHg 75%
    16:00 +13°C° 0 mm 3 mps 750 mmHg 78%
    17:00 +13°C° 0.1 mm 2 mps 751 mmHg 83%
    18:00 +10°C° 0.1 mm 2 mps 752 mmHg 88%
    19:00 +9°C° 0.1 mm 2 mps 752 mmHg 92%
    20:00 +8°C° 0 mm 2 mps 753 mmHg 93%
    21:00 +8°C° 0 mm 1 mps 753 mmHg 93%
    22:00 +8°C° 0 mm 1 mps 753 mmHg 94%
    23:00 +8°C° 0 mm 1 mps 753 mmHg 94%

    23 August, Wednesday

    Time Temperature Precipitation Wind Pressure Humidity
    00:00 +7°C° 0 mm 1 mps 753 mmHg 94%
    01:00 +7°C° 0 mm 1 mps 753 mmHg 94%
    02:00 +7°C° 0 mm 1 mps 753 mmHg 95%
    03:00 +6°C° 0 mm 1 mps 753 mmHg 95%
    04:00 +6°C° 0 mm 1 mps 753 mmHg 95%
    05:00 +6°C° 0 mm 1 mps 754 mmHg 96%
    06:00 +6°C° 0 mm 1 mps 754 mmHg 96%
    07:00 +5°C° 0 mm 1 mps 755 mmHg 96%
    08:00 +7°C° 0 mm 1 mps 755 mmHg 94%
    09:00 +9°C° 0 mm 1 mps 755 mmHg 92%
    10:00 +11°C° 0 mm 1 mps 755 mmHg 90%
    11:00 +11°C° 0.1 mm 1 mps 755 mmHg 88%
    12:00 +12°C° 0.1 mm 2 mps 755 mmHg 86%
    13:00 +12°C° 0.1 mm 2 mps 755 mmHg 84%
    14:00 +12°C° 0.1 mm 2 mps 755 mmHg 83%
    15:00 +13°C° 0.1 mm 2 mps 755 mmHg 81%
    16:00 +13°C° 0.1 mm 2 mps 755 mmHg 79%
    17:00 +12°C° 0.1 mm 2 mps 755 mmHg 82%
    18:00 +9°C° 0.1 mm 2 mps 756 mmHg 85%
    19:00 +8°C° 0.1 mm 2 mps 756 mmHg 88%
    20:00 +7°C° 0 mm 2 mps 757 mmHg 89%
    21:00 +6°C° 0 mm 2 mps 757 mmHg 90%
    22:00 +6°C° 0 mm 2 mps 757 mmHg 91%
    23:00 +5°C° 0 mm 2 mps 757 mmHg 91%
    Show more